Regional Weather Roundup
Issued by NWS

Home | Current Version | Previous Version | Text Only | Print | Product List | Glossary Off
Versions: 1 2 3 4 5 6 7 8 9 10 11 12 13 14 15 16 17 18 19 20 21 22 23 24 25 26 27 28 29 30 31 32 33 34 35 36 37 38 39 40 41 42 43 44 45 46 47 48 49 50

000
ASUS43 KLMK 221702
RWRKY
KENTUCKY REGIONAL WEATHER ROUNDUP
NATIONAL WEATHER SERVICE LOUISVILLE KY
100 PM EDT SAT JUL 22 2017

NOTE "FAIR" INDICATES FEW OR NO CLOUDS BELOW 12,000 FEET
WITH NO SIGNIFICANT WEATHER AND/OR OBSTRUCTIONS TO VISIBILITY.

KYZ001>023-026-027-061>063-070>075-221800-
WESTERN AND SOUTH CENTRAL KENTUCKY

CITY           SKY/WX    TMP DP  RH WIND       PRES   REMARKS
PADUCAH        SUNNY     94  75  54 W8        29.97R HX 105
HENDERSON      MOSUNNY   94  76  55 N5        29.95F HX 106
OWENSBORO      MOSUNNY   93  77  59 W16       29.95F HX 107
HOPKINSVILLE   MOSUNNY   91  76  61 SW10      29.99S HX 103
BOWLING GREEN  PTSUNNY   93  75  55 W12       29.99R HX 104
GLASGOW        NOT AVBL
$$

KYZ024-025-028>034-038-045-046-053-221800-
NORTH CENTRAL KENTUCKY

CITY           SKY/WX    TMP DP  RH WIND       PRES   REMARKS
LOUISVILLE/SDF CLOUDY    94  75  54 W15G24    29.93F HX 105
LOUISVILLE/LOU CLOUDY    92  76  59 W7G20     29.94F HX 104
FORT KNOX      CLOUDY    92  76  60 W12G18    29.95F HX 103
$$

KYZ035>037-039>044-047>052-055>060-089>105-221800-
NORTHEAST KENTUCKY

CITY           SKY/WX    TMP DP  RH WIND       PRES   REMARKS
LEXINGTON      MOSUNNY   90  73  57 SW14      29.97S HAZE    HX  98
COVINGTON      CLOUDY    87  78  74 W13       29.91F HX 100
FRANKFORT      MOSUNNY   91  74  57 SW12G20   29.94F HX 100
$$

KYZ054-064>069-076>088-106>120-221800-
SOUTHEAST KENTUCKY

CITY           SKY/WX    TMP DP  RH WIND       PRES   REMARKS
JACKSON        MOSUNNY   91  74  57 MISG      30.00F HX 100
LONDON         MOSUNNY   91  71  51 W13       30.02S HX  97
SOMERSET       MOSUNNY   90  70  51 W16       30.02S HX  95
MIDDLESBORO    PTSUNNY   89  74  61 W3        30.03S HX  98
MONTICELLO     MOSUNNY   91  78  65 W15G23    30.04S HX 106
$$





USA.gov is the U.S. government's official web portal to all federal, state and local government web resources and services.